Location: Deneb Observatory
(47.2267°N, 100.4953°W)
Time: 16:30:52
(UTC-06:00)

Amateur Radio Satellites - All Passes

Search period start: 24 November 2014 16:00
Search period end: 25 November 2014 16:00
Location: Deneb Observatory, 47.2267°N, 100.4953°W

Satellite Date Start Highest point End Downlink Frequencies (MHz)
Time Altitude Azimuth
VERMONT LUNAR 24 Nov 16:03:07 16:05:24 16° 159° (SSE) 16:07:42 437.305
BEESAT 24 Nov 16:12:20 16:14:28 13° 305° (NW) 16:16:36 436.000
Cubesat XI-IV 24 Nov 16:18:25 16:21:04 14° 54° (NE) 16:23:43 437.490
MOZHAYETS 4 24 Nov 16:21:50 16:23:04 11° 86° (E) 16:24:18
AO-7 24 Nov 16:22:22 16:30:33 63° 256° (WSW) 16:38:50 29.400- 29.500
RS-15 24 Nov 16:26:26 16:36:36 47° 112° (ESE) 16:46:45 29.354- 29.394
STARS 24 Nov 16:26:30 16:30:33 37° 292° (WNW) 16:34:36 437.465
MaSat-1 24 Nov 16:50:36 16:53:20 36° 303° (WNW) 16:55:51 437.345
CUTE-I 24 Nov 16:58:02 17:02:28 27° 62° (ENE) 17:06:55 437.470
KKS-1 24 Nov 17:05:10 17:07:21 14° 302° (WNW) 17:09:31 437.445
O/OREOS (USA 219) 24 Nov 17:11:40 17:15:44 35° 253° (WSW) 17:19:48 437.305
PHONESAT 2.4 24 Nov 17:22:40 17:25:45 25° 169° (S) 17:28:50 2401.200-2431.200
JAS-2 24 Nov 17:25:47 17:33:24 70° 258° (WSW) 17:41:18 435.910
VERMONT LUNAR 24 Nov 17:40:08 17:43:16 28° 176° (S) 17:46:24 437.305
GONETS M04 24 Nov 17:42:00 17:46:46 15° 50° (NE) 17:51:31
Cubesat XI-IV 24 Nov 17:54:56 18:00:18 77° 73° (ENE) 18:05:41 437.490
MOZHAYETS 4 24 Nov 17:56:18 18:01:00 89° 104° (ESE) 18:05:40
PRISM 24 Nov 18:07:00 18:10:23 23° 94° (E) 18:13:45 437.425
AO-7 24 Nov 18:21:45 18:25:04 13° 277° (W) 18:28:25 29.400- 29.500
HO-68 24 Nov 18:35:28 18:40:00 18° 48° (NE) 18:44:32 435.675
CUTE-I 24 Nov 18:37:05 18:42:17 50° 260° (W) 18:47:30 437.470
RS-15 24 Nov 18:37:49 18:48:38 63° 317° (NW) 18:59:35 29.354- 29.394
PHONESAT 2.4 24 Nov 19:00:48 19:04:01 28° 186° (S) 19:07:14 2401.200-2431.200
AIST 1 24 Nov 19:08:29 19:09:56 11° 81° (E) 19:11:22
JAS-2 24 Nov 19:15:33 19:19:47 15° 279° (W) 19:24:06 435.910
CANX-2 24 Nov 19:15:45 19:17:27 12° 58° (ENE) 19:19:09 2200.000
BRITE-PL 24 Nov 19:16:55 19:19:23 14° 60° (ENE) 19:21:45 437.365/2234.400
VERMONT LUNAR 24 Nov 19:18:17 19:21:13 23° 193° (SSW) 19:24:09 437.305
COMPASS 1 24 Nov 19:25:10 19:25:49 10° 57° (ENE) 19:26:28 437.405
STRAND 1 24 Nov 19:27:29 19:32:32 55° 101° (E) 19:37:31 437.568
CUBESAT XI-V 24 Nov 19:33:19 19:38:01 70° 102° (ESE) 19:42:39 437.345
MOZHAYETS 4 24 Nov 19:35:18 19:37:32 14° 302° (WNW) 19:39:47
GONETS M04 24 Nov 19:37:06 19:45:52 61° 75° (ENE) 19:54:32
Cubesat XI-IV 24 Nov 19:37:39 19:40:59 17° 271° (W) 19:44:20 437.490
PRISM 24 Nov 19:42:07 19:46:05 38° 292° (WNW) 19:49:59 437.425
CUTE 1.7 & AOD 2 24 Nov 19:48:42 19:52:01 23° 65° (ENE) 19:55:21 437.475
DOVE 4 24 Nov 19:57:58 20:00:55 18° 62° (ENE) 20:03:48 437.250
UKube-1 24 Nov 20:09:24 20:11:47 15° 59° (ENE) 20:14:10 .
HO-68 24 Nov 20:19:24 20:26:32 72° 69° (ENE) 20:33:43 435.675
Oscar 11 24 Nov 20:21:01 20:24:02 19° 62° (ENE) 20:27:04 145.826/435.025
SEEDS 24 Nov 20:22:50 20:26:47 42° 70° (ENE) 20:30:47 437.485
CUBEBUG 2 24 Nov 20:29:18 20:31:29 14° 60° (ENE) 20:33:39 437.445
GOMX 1 24 Nov 20:31:30 20:36:02 45° 71° (ENE) 20:40:18 467.674
UWE-3 24 Nov 20:32:48 20:34:47 13° 60° (ENE) 20:36:45 435.000/436.395/437.385
PCSat 24 Nov 20:35:39 20:40:57 58° 117° (ESE) 20:46:17 145.827
PHONESAT 2.4 24 Nov 20:39:57 20:42:10 15° 203° (SSW) 20:44:23 2401.200-2431.200
DX 1 24 Nov 20:41:48 20:45:35 29° 65° (ENE) 20:49:22 434.975-435.025
AIST 1 24 Nov 20:42:30 20:46:54 78° 280° (W) 20:51:22
AAUSAT CUBESAT 2 24 Nov 20:42:31 20:46:33 52° 72° (ENE) 20:50:38 437.432
CINEMA 3 24 Nov 20:43:40 20:47:23 28° 67° (ENE) 20:51:01 145.822/145.860
CANX-2 24 Nov 20:48:33 20:52:46 83° 257° (WSW) 20:57:02 2200.000
BRITE-PL 24 Nov 20:52:20 20:57:22 86° 256° (WSW) 21:02:02 437.365/2234.400
RS-15 24 Nov 20:54:04 21:03:39 33° 348° (NNW) 21:13:27 29.354- 29.394
DELFI C3 24 Nov 20:55:25 20:59:03 32° 68° (ENE) 21:02:42 145.870
COMPASS 1 24 Nov 20:56:40 21:00:50 83° 75° (ENE) 21:05:03 437.405
50 SAT 24 Nov 21:03:50 21:05:20 12° 59° (ENE) 21:06:51 437.505
HUMSAT D 24 Nov 21:04:36 21:06:54 15° 61° (ENE) 21:09:12 437.325/437.525
VELOX 1 24 Nov 21:06:12 21:09:16 18° 61° (ENE) 21:12:20 145.980
STRAND 1 24 Nov 21:07:23 21:11:22 23° 299° (WNW) 21:15:20 437.568
ZACube-1 24 Nov 21:09:23 21:12:49 25° 66° (ENE) 21:16:14 437.345
CUBESAT XI-V 24 Nov 21:11:59 21:14:56 17° 300° (WNW) 21:17:51 437.345
BEESAT 3 24 Nov 21:14:27 21:18:28 57° 122° (ESE) 21:22:35 437.485
CUTE 1.7 & AOD 2 24 Nov 21:23:49 21:27:46 38° 263° (W) 21:31:45 437.475
BEESAT 2 24 Nov 21:28:37 21:32:44 71° 124° (SE) 21:36:55 435.950
AISAT 24 Nov 21:30:32 21:34:27 30° 66° (ENE) 21:38:22 437.250
DOVE 4 24 Nov 21:33:48 21:38:22 59° 259° (W) 21:42:41 437.250
GONETS M04 24 Nov 21:34:34 21:42:13 35° 277° (W) 21:49:50
UKube-1 24 Nov 21:43:03 21:47:24 74° 257° (WSW) 21:51:47 .
FUNcube-1 24 Nov 21:44:02 21:48:08 54° 72° (ENE) 21:52:13 145.935
CUBEBUG 1 24 Nov 21:49:39 21:52:44 19° 62° (ENE) 21:55:50 437.445
Oscar 11 24 Nov 21:55:40 21:59:52 51° 260° (W) 22:04:05 145.826/435.025
AIST 2 24 Nov 21:56:46 22:00:59 69° 124° (SE) 22:05:16 435.215
SEEDS 24 Nov 21:59:45 22:02:50 20° 268° (W) 22:05:57 437.485
CUBEBUG 2 24 Nov 22:03:27 22:07:43 70° 258° (WSW) 22:11:54 437.445
UWE-3 24 Nov 22:06:34 22:10:48 75° 257° (WSW) 22:15:00 435.000/436.395/437.385
HO-68 24 Nov 22:09:07 22:14:52 26° 268° (W) 22:20:40 435.675
GOMX 1 24 Nov 22:10:41 22:14:21 22° 267° (W) 22:17:52 467.674
DX 1 24 Nov 22:17:48 22:21:45 32° 263° (W) 22:25:44 434.975-435.025
AAUSAT CUBESAT 2 24 Nov 22:19:57 22:22:34 16° 270° (W) 22:25:12 437.432
PCSat 24 Nov 22:19:58 22:24:42 30° 318° (NW) 22:29:29 145.827
CINEMA 3 24 Nov 22:20:39 22:24:34 31° 264° (W) 22:28:23 145.822/145.860
ANTELSAT 24 Nov 22:21:09 22:23:54 16° 91° (E) 22:26:40 437.575/2403.000
POPSAT HIP 1 24 Nov 22:23:16 22:23:56 10° 87° (E) 22:24:35 437.405
DELFI C3 24 Nov 22:31:01 22:34:24 25° 266° (W) 22:37:49 145.870
ESTCUBE 1 24 Nov 22:34:44 22:39:08 50° 71° (ENE) 22:43:34 437.505/2401.250
BRITE-PL 24 Nov 22:35:10 22:36:28 11° 272° (W) 22:37:44 437.365/2234.400
50 SAT 24 Nov 22:36:03 22:40:05 79° 257° (WSW) 22:44:08 437.505
COMPASS 1 24 Nov 22:36:41 22:37:11 10° 273° (W) 22:37:40 437.405
HUMSAT D 24 Nov 22:38:09 22:42:16 64° 259° (WSW) 22:46:22 437.325/437.525
VELOX 1 24 Nov 22:41:03 22:45:27 58° 259° (W) 22:49:53 145.980
ZACube-1 24 Nov 22:45:15 22:49:05 34° 263° (W) 22:52:55 437.345
BEESAT 3 24 Nov 22:53:38 22:57:01 24° 322° (NW) 23:00:27 437.485
POLYITAN 1 24 Nov 22:53:42 22:57:03 22° 93° (E) 23:00:24 437.675
QB50P2 24 Nov 22:56:13 22:59:40 24° 94° (E) 23:03:06 145.880/145.840
DUCHIFAT 1 24 Nov 23:03:02 23:06:39 27° 95° (E) 23:10:15 145.980
AISAT 24 Nov 23:07:02 23:11:03 32° 264° (W) 23:15:05 437.250
BEESAT 2 24 Nov 23:08:17 23:11:29 21° 325° (NW) 23:14:42 435.950
RS-15 24 Nov 23:09:48 23:19:54 38° 23° (NNE) 23:30:17 29.354- 29.394
TISAT 1 24 Nov 23:12:31 23:16:20 32° 67° (ENE) 23:20:09 437.305
TIGRISAT 24 Nov 23:15:11 23:19:29 52° 100° (E) 23:23:52 435.000
SPROUT 24 Nov 23:18:09 23:22:00 32° 67° (ENE) 23:25:51 437.525
AUBIESAT-1 24 Nov 23:21:03 23:23:43 17° 52° (NE) 23:26:31 437.475
NANOSAT C BR1 24 Nov 23:21:57 23:25:59 43° 99° (E) 23:30:00 145.865
FUNcube-1 24 Nov 23:22:19 23:24:51 16° 270° (W) 23:27:23 145.935
CUBEBUG 1 24 Nov 23:24:22 23:28:44 55° 259° (W) 23:33:07 437.445
M-CUBED/EXP-1 PRIME 24 Nov 23:24:58 23:27:56 19° 54° (NE) 23:31:04 437.505
ITUPSAT 1 24 Nov 23:26:38 23:27:12 10° 53° (NE) 23:27:47 437.325
UNISAT 6 24 Nov 23:28:02 23:32:27 72° 103° (ESE) 23:36:57 437.425
QB50P1 24 Nov 23:31:35 23:35:45 54° 100° (E) 23:39:53 145.935-145.965
CUSAT 1 24 Nov 23:33:25 23:37:06 27° 73° (ENE) 23:41:46 437.405
SWISSCUBE 24 Nov 23:36:06 23:38:28 14° 56° (NE) 23:40:51 437.505
AIST 2 24 Nov 23:36:43 23:40:04 22° 324° (NW) 23:43:26 435.215
BUGSAT 1 24 Nov 23:49:11 23:53:18 70° 102° (ESE) 23:57:21 437.445
DANDE 24 Nov 23:53:22 23:57:07 33° 75° (ENE) 00:02:00 436.750
POPSAT HIP 1 24 Nov 23:56:12 00:00:26 83° 285° (WNW) 00:04:39 437.405
ANTELSAT 24 Nov 23:56:43 00:01:05 60° 288° (WNW) 00:05:31 437.575/2403.000
BEESAT 25 Nov 00:05:51 00:09:32 23° 62° (ENE) 00:13:15 436.000
PCSat 25 Nov 00:08:26 00:09:59 11° 343° (NNW) 00:11:32 145.827
ESTCUBE 1 25 Nov 00:12:59 00:16:18 20° 268° (W) 00:19:39 437.505/2401.250
POLYITAN 1 25 Nov 00:29:14 00:33:09 38° 291° (WNW) 00:37:04 437.675
QB50P2 25 Nov 00:31:48 00:35:41 36° 292° (WNW) 00:39:33 145.880/145.840
DUCHIFAT 1 25 Nov 00:38:49 00:42:33 31° 293° (WNW) 00:46:16 145.980
TISAT 1 25 Nov 00:48:33 00:52:12 27° 265° (W) 00:55:52 437.305
MaSat-1 25 Nov 00:51:54 00:54:08 44° 58° (ENE) 00:56:25 437.345
TIGRISAT 25 Nov 00:52:48 00:55:55 19° 297° (WNW) 00:59:05 435.000
AUBIESAT-1 25 Nov 00:54:03 00:58:07 71° 253° (WSW) 01:02:37 437.475
KKS-1 25 Nov 00:54:05 00:56:31 15° 59° (ENE) 00:58:57 437.445
SPROUT 25 Nov 00:54:23 00:58:07 28° 265° (W) 01:01:51 437.525
ISS 25 Nov 00:55:47 00:58:55 44° 147° (SSE) 01:02:05 145.825
NANOSAT C BR1 25 Nov 00:58:27 01:01:38 21° 297° (WNW) 01:04:48 145.865
M-CUBED/EXP-1 PRIME 25 Nov 00:58:30 01:02:31 59° 254° (WSW) 01:06:56 437.505
ITUPSAT 1 25 Nov 00:59:24 01:04:10 64° 72° (ENE) 01:08:57 437.325
YUBILEINY 25 Nov 01:03:19 01:05:32 11° 68° (ENE) 01:07:45 435.215
UNISAT 6 25 Nov 01:06:15 01:08:45 15° 300° (WNW) 01:11:17 437.425
QB50P1 25 Nov 01:08:29 01:11:16 17° 298° (WNW) 01:14:04 145.935-145.965
Oscar 19 25 Nov 01:09:37 01:13:03 18° 90° (E) 01:16:29 437.125/150
SWISSCUBE 25 Nov 01:10:48 01:15:37 88° 74° (ENE) 01:20:29 437.505
CUSAT 1 25 Nov 01:16:12 01:20:14 37° 263° (W) 01:25:29 437.405
RS-15 25 Nov 01:22:52 01:34:05 82° 51° (NE) 01:45:48 29.354- 29.394
BUGSAT 1 25 Nov 01:26:14 01:28:17 14° 301° (WNW) 01:30:19 437.445
POPSAT HIP 1 25 Nov 01:34:46 01:35:38 11° 303° (WNW) 01:36:31 437.405
DANDE 25 Nov 01:36:57 01:40:35 27° 264° (W) 01:45:11 436.750
BEESAT 25 Nov 01:42:24 01:47:04 51° 260° (W) 01:51:47 436.000
STARS 25 Nov 01:50:36 01:54:33 33° 67° (ENE) 01:58:29 437.465
ITAMSAT 1 25 Nov 01:59:46 02:03:32 20° 91° (E) 02:07:15 435.822/435.867
Gurwin Techsat 1B 25 Nov 02:24:52 02:28:47 20° 91° (E) 02:32:40 435.225
KKS-1 25 Nov 02:28:09 02:32:36 76° 257° (WSW) 02:37:05 437.445
ISS 25 Nov 02:32:22 02:35:35 48° 345° (NNW) 02:38:48 145.825
ITUPSAT 1 25 Nov 02:39:23 02:42:30 17° 270° (W) 02:45:39 437.325
Oscar 19 25 Nov 02:47:45 02:52:53 68° 288° (WNW) 02:58:01 437.125/150
YUBILEINY 25 Nov 02:51:44 03:00:14 57° 90° (E) 03:08:44 435.215
SWISSCUBE 25 Nov 02:52:18 02:54:10 12° 273° (W) 02:56:02 437.505
MOZHAYETS 4 25 Nov 03:26:23 03:29:14 17° 60° (ENE) 03:32:06
STARS 25 Nov 03:27:15 03:31:03 28° 265° (W) 03:34:53 437.465
HORYU 2 25 Nov 03:33:03 03:37:11 35° 97° (E) 03:41:19 437.375
RS-15 25 Nov 03:36:01 03:45:24 33° 255° (WSW) 03:55:09 29.354- 29.394
PCSat 25 Nov 03:37:37 03:41:48 22° 36° (NE) 03:45:58 145.827
ITAMSAT 1 25 Nov 03:38:19 03:43:27 61° 289° (WNW) 03:48:32 435.822/435.867
BEESAT 3 25 Nov 03:54:05 03:57:06 19° 34° (NNE) 04:00:05 437.485
Gurwin Techsat 1B 25 Nov 04:03:55 04:09:11 62° 289° (WNW) 04:14:24 435.225
BEESAT 2 25 Nov 04:08:28 04:11:45 21° 36° (NE) 04:15:02 435.950
ISS 25 Nov 04:09:32 04:12:38 37° 6° (N) 04:15:45 145.825
AO-7 25 Nov 04:20:22 04:28:04 39° 97° (E) 04:35:42 29.400- 29.500
Oscar 19 25 Nov 04:29:30 04:31:18 12° 307° (NW) 04:33:07 437.125/150
SO-50 25 Nov 04:30:40 04:35:00 46° 120° (ESE) 04:39:28 436.795
JAS-2 25 Nov 04:34:34 04:39:12 18° 83° (E) 04:43:30 435.910
AIST 2 25 Nov 04:38:00 04:41:24 22° 36° (NE) 04:44:47 435.215
YUBILEINY 25 Nov 04:49:23 04:57:25 38° 293° (WNW) 05:05:29 435.215
PRISM 25 Nov 05:01:00 05:04:33 27° 65° (ENE) 05:08:08 437.425
MOZHAYETS 4 25 Nov 05:01:22 05:05:56 70° 258° (WSW) 05:10:35
CUBESAT XI-V 25 Nov 05:05:14 05:07:40 14° 58° (ENE) 05:10:06 437.345
STRAND 1 25 Nov 05:09:40 05:13:02 18° 58° (ENE) 05:16:25 437.568
HORYU 2 25 Nov 05:09:57 05:13:46 28° 295° (WNW) 05:17:35 437.375
PCSat 25 Nov 05:20:30 05:25:58 89° 57° (ENE) 05:31:24 145.827
ITAMSAT 1 25 Nov 05:20:45 05:21:55 11° 309° (NW) 05:23:04 435.822/435.867
BEESAT 3 25 Nov 05:31:40 05:35:53 85° 235° (SW) 05:40:03 437.485
ISS 25 Nov 05:46:13 05:49:32 88° 25° (NNE) 05:52:50 145.825
BEESAT 2 25 Nov 05:46:16 05:50:29 68° 236° (SW) 05:54:38 435.950
Gurwin Techsat 1B 25 Nov 05:46:40 05:48:06 11° 309° (NW) 05:49:32 435.225
O/OREOS (USA 219) 25 Nov 05:49:03 05:52:00 17° 101° (E) 05:54:57 437.305
Cubesat XI-IV 25 Nov 06:09:47 06:14:02 24° 92° (E) 06:18:15 437.490
SO-50 25 Nov 06:11:37 06:15:43 31° 321° (NW) 06:19:57 436.795
AO-7 25 Nov 06:13:02 06:21:09 57° 298° (WNW) 06:29:15 29.400- 29.500
AIST 2 25 Nov 06:16:10 06:20:29 68° 236° (WSW) 06:24:43 435.215
JAS-2 25 Nov 06:18:03 06:25:25 89° 105° (ESE) 06:31:53 435.910
PRISM 25 Nov 06:36:12 06:40:00 33° 263° (W) 06:43:51 437.425
CUBESAT XI-V 25 Nov 06:39:42 06:44:26 86° 256° (WSW) 06:49:12 437.345
STRAND 1 25 Nov 06:46:29 06:51:38 77° 256° (WSW) 06:56:49 437.568
AIST 1 25 Nov 06:46:54 06:50:59 36° 74° (ENE) 06:55:00
CUTE-I 25 Nov 06:50:53 06:56:06 51° 100° (E) 07:01:15 437.470
GONETS M04 25 Nov 06:51:54 06:55:19 13° 69° (ENE) 06:58:45
PCSat 25 Nov 07:05:36 07:08:37 15° 256° (WSW) 07:11:37 145.827
BEESAT 3 25 Nov 07:12:40 07:13:24 10° 252° (WSW) 07:14:08 437.485
ISS 25 Nov 07:23:32 07:25:49 18° 223° (SW) 07:28:06 145.825
O/OREOS (USA 219) 25 Nov 07:26:33 07:30:58 56° 299° (WNW) 07:35:24 437.305
Cubesat XI-IV 25 Nov 07:49:15 07:54:27 53° 291° (WNW) 07:59:36 437.490
SO-50 25 Nov 07:56:03 07:57:47 12° 344° (NNW) 07:59:31 436.795
JAS-2 25 Nov 08:04:06 08:09:25 22° 308° (NW) 08:14:22 435.910
AO-7 25 Nov 08:07:21 08:12:14 17° 320° (NW) 08:17:08 29.400- 29.500
CUBESAT XI-V 25 Nov 08:21:26 08:22:36 11° 274° (W) 08:23:47 437.345
AIST 1 25 Nov 08:24:57 08:28:28 24° 272° (W) 08:31:56
STRAND 1 25 Nov 08:30:40 08:31:41 11° 275° (W) 08:32:43 437.568
CUTE-I 25 Nov 08:31:32 08:35:53 26° 299° (WNW) 08:40:12 437.470
CANX-2 25 Nov 08:32:31 08:34:51 14° 89° (E) 08:37:11 2200.000
COMPASS 1 25 Nov 08:39:57 08:41:18 11° 87° (E) 08:42:40 437.405
GONETS M04 25 Nov 08:41:34 08:50:10 62° 92° (E) 08:58:51
BRITE-PL 25 Nov 08:54:52 08:57:57 20° 92° (E) 09:01:03 437.365/2234.400
UNISAT 6 25 Nov 08:57:05 08:58:38 12° 58° (ENE) 09:00:11 437.425
CUTE 1.7 & AOD 2 25 Nov 09:06:14 09:09:59 28° 95° (E) 09:13:42 437.475
O/OREOS (USA 219) 25 Nov 09:10:54 09:11:25 10° 320° (NW) 09:11:55 437.305
POPSAT HIP 1 25 Nov 09:18:57 09:21:08 14° 59° (ENE) 09:23:19 437.405
ANTELSAT 25 Nov 09:23:49 09:27:00 21° 63° (ENE) 09:30:12 437.575/2403.000
UKube-1 25 Nov 09:29:18 09:31:49 15° 90° (E) 09:34:20 .
DOVE 4 25 Nov 09:30:08 09:33:39 26° 95° (E) 09:37:12 437.250
HO-68 25 Nov 09:31:15 09:38:18 56° 101° (ESE) 09:45:18 435.675
SO-50 25 Nov 09:39:47 09:40:33 10° 10° (N) 09:41:19 436.795
SEEDS 25 Nov 09:40:04 09:44:17 55° 100° (E) 09:48:29 437.485
Oscar 11 25 Nov 09:40:27 09:43:56 23° 93° (E) 09:47:24 145.826/435.025
POLYITAN 1 25 Nov 09:50:19 09:53:54 27° 66° (ENE) 09:57:29 437.675
CUBEBUG 2 25 Nov 09:52:20 09:55:19 18° 92° (E) 09:58:20 437.445
QB50P2 25 Nov 09:52:35 09:56:14 28° 66° (ENE) 09:59:53 145.880/145.840
UWE-3 25 Nov 09:54:28 09:57:16 17° 91° (E) 10:00:04 435.000/436.395/437.385
AAUSAT CUBESAT 2 25 Nov 09:58:36 10:02:50 66° 102° (ESE) 10:07:02 437.432
DUCHIFAT 1 25 Nov 09:59:01 10:02:48 32° 67° (ENE) 10:06:35 145.980
DX 1 25 Nov 10:02:57 10:06:55 33° 97° (E) 10:10:49 434.975-435.025
CANX-2 25 Nov 10:06:58 10:11:14 63° 287° (WNW) 10:15:28 2200.000
GOMX 1 25 Nov 10:07:58 10:12:08 85° 103° (ESE) 10:16:22 467.674
DELFI C3 25 Nov 10:08:10 10:12:01 36° 97° (E) 10:15:51 145.870
CINEMA 3 25 Nov 10:11:50 10:15:52 43° 99° (E) 10:19:58 145.822/145.860
COMPASS 1 25 Nov 10:13:20 10:17:36 78° 285° (WNW) 10:21:50 437.405
50 SAT 25 Nov 10:15:58 10:17:32 12° 89° (E) 10:19:06 437.505
TIGRISAT 25 Nov 10:17:21 10:21:34 67° 73° (ENE) 10:25:49 435.000
NANOSAT C BR1 25 Nov 10:17:54 10:22:01 49° 71° (ENE) 10:26:08 145.865
HUMSAT D 25 Nov 10:20:46 10:23:29 17° 91° (E) 10:26:12 437.325/437.525
QB50P1 25 Nov 10:27:35 10:31:47 62° 73° (ENE) 10:36:00 145.935-145.965
VELOX 1 25 Nov 10:29:34 10:32:59 21° 93° (E) 10:36:22 145.980
UNISAT 6 25 Nov 10:30:30 10:34:47 88° 256° (WSW) 10:39:05 437.425
ZACube-1 25 Nov 10:30:38 10:34:28 33° 97° (E) 10:38:22 437.345
BRITE-PL 25 Nov 10:32:49 10:36:42 39° 290° (WNW) 10:40:35 437.365/2234.400
GONETS M04 25 Nov 10:39:40 10:47:32 35° 294° (WNW) 10:55:30
CUTE 1.7 & AOD 2 25 Nov 10:42:07 10:45:54 31° 293° (WNW) 10:49:41 437.475
BUGSAT 1 25 Nov 10:42:18 10:46:33 75° 74° (ENE) 10:50:48 437.445
POPSAT HIP 1 25 Nov 10:52:15 10:56:30 74° 257° (WSW) 11:00:46 437.405
AISAT 25 Nov 10:54:50 10:58:59 38° 98° (E) 11:03:06 437.250
ANTELSAT 25 Nov 10:59:29 11:03:33 44° 261° (W) 11:07:40 437.575/2403.000
UKube-1 25 Nov 11:04:06 11:08:24 61° 288° (WNW) 11:12:40 .
FUNcube-1 25 Nov 11:05:41 11:09:55 78° 103° (ESE) 11:14:12 145.935
DOVE 4 25 Nov 11:07:48 11:11:29 31° 292° (WNW) 11:15:14 437.250
CUBEBUG 1 25 Nov 11:11:08 11:14:32 22° 93° (E) 11:17:54 437.445
Oscar 11 25 Nov 11:16:12 11:20:15 39° 291° (WNW) 11:24:18 145.826/435.025
SEEDS 25 Nov 11:16:54 11:19:44 18° 298° (WNW) 11:22:34 437.485
SO-50 25 Nov 11:19:02 11:22:53 23° 34° (NNE) 11:26:46 436.795
HO-68 25 Nov 11:19:23 11:25:45 36° 301° (WNW) 11:32:05 435.675
POLYITAN 1 25 Nov 11:25:55 11:29:46 33° 263° (W) 11:33:38 437.675
CUBEBUG 2 25 Nov 11:28:15 11:32:17 46° 289° (WNW) 11:36:24 437.445
QB50P2 25 Nov 11:28:18 11:32:06 31° 264° (W) 11:35:55 145.880/145.840
UWE-3 25 Nov 11:30:01 11:34:07 51° 288° (WNW) 11:38:16 435.000/436.395/437.385
DUCHIFAT 1 25 Nov 11:35:03 11:38:42 27° 265° (W) 11:42:21 145.980
AAUSAT CUBESAT 2 25 Nov 11:35:38 11:38:02 15° 299° (WNW) 11:40:26 437.432
DX 1 25 Nov 11:39:21 11:43:05 28° 295° (WNW) 11:46:46 434.975-435.025
DELFI C3 25 Nov 11:43:52 11:47:10 23° 295° (WNW) 11:50:27 145.870
GOMX 1 25 Nov 11:48:24 11:49:41 11° 302° (WNW) 11:50:57 467.674
50 SAT 25 Nov 11:49:17 11:53:19 69° 286° (WNW) 11:57:22 437.505
CINEMA 3 25 Nov 11:49:45 11:52:51 20° 296° (WNW) 11:56:00 145.822/145.860
NANOSAT C BR1 25 Nov 11:55:17 11:58:11 18° 269° (W) 12:01:06 145.865
HUMSAT D 25 Nov 11:55:34 11:59:36 50° 288° (WNW) 12:03:39 437.325/437.525
TIGRISAT 25 Nov 11:56:51 11:58:49 13° 271° (W) 12:00:48 435.000
ESTCUBE 1 25 Nov 12:01:15 12:05:49 72° 103° (ESE) 12:10:20 437.505/2401.250
VELOX 1 25 Nov 12:05:34 12:09:47 43° 291° (WNW) 12:13:57 145.980
QB50P1 25 Nov 12:05:48 12:08:06 14° 270° (W) 12:10:25 145.935-145.965
ZACube-1 25 Nov 12:07:15 12:10:46 26° 294° (WNW) 12:14:19 437.345
BUGSAT 1 25 Nov 12:20:57 12:22:34 12° 272° (W) 12:24:11 437.445
Oscar 19 25 Nov 12:29:12 12:33:48 35° 65° (ENE) 12:38:25 437.125/150
TISAT 1 25 Nov 12:30:05 12:34:02 37° 98° (E) 12:37:56 437.305
AISAT 25 Nov 12:31:50 12:35:28 25° 296° (WNW) 12:39:04 437.250
SPROUT 25 Nov 12:37:36 12:41:40 40° 98° (E) 12:45:42 437.525
M-CUBED/EXP-1 PRIME 25 Nov 12:41:22 12:42:18 11° 90° (E) 12:43:14 437.505
FUNcube-1 25 Nov 12:43:48 12:45:44 13° 301° (WNW) 12:47:41 145.935
CUBEBUG 1 25 Nov 12:46:58 12:51:06 42° 291° (WNW) 12:55:11 437.445
CUSAT 1 25 Nov 12:52:32 12:53:39 12° 91° (E) 12:54:46 437.405
YUBILEINY 25 Nov 12:58:02 13:05:45 33° 65° (ENE) 13:13:22 435.215
ITUPSAT 1 25 Nov 12:58:53 13:01:10 13° 88° (E) 13:03:26 437.325
SO-50 25 Nov 12:59:08 13:04:01 83° 234° (SW) 13:08:56 436.795
SWISSCUBE 25 Nov 13:09:17 13:12:37 18° 91° (E) 13:15:55 437.505
DANDE 25 Nov 13:14:26 13:16:30 19° 94° (E) 13:18:29 436.750
ITAMSAT 1 25 Nov 13:20:27 13:25:19 41° 67° (ENE) 13:30:12 435.822/435.867
AO-7 25 Nov 13:33:53 13:39:20 20° 42° (NE) 13:44:48 29.400- 29.500
ESTCUBE 1 25 Nov 13:39:27 13:42:09 16° 301° (WNW) 13:44:50 437.505/2401.250
BEESAT 25 Nov 13:39:49 13:44:08 32° 96° (E) 13:48:25 436.000
Gurwin Techsat 1B 25 Nov 13:48:42 13:53:41 43° 67° (ENE) 13:58:42 435.225
TISAT 1 25 Nov 14:06:20 14:09:42 24° 296° (WNW) 14:13:03 437.305
AUBIESAT-1 25 Nov 14:08:23 14:13:18 63° 106° (ESE) 14:18:06 437.475
Oscar 19 25 Nov 14:08:30 14:13:08 34° 264° (W) 14:17:48 437.125/150
M-CUBED/EXP-1 PRIME 25 Nov 14:13:09 14:18:07 75° 108° (ESE) 14:23:00 437.505
SPROUT 25 Nov 14:14:11 14:17:33 23° 296° (WNW) 14:20:54 437.525
O/OREOS (USA 219) 25 Nov 14:17:23 14:18:07 10° 40° (NE) 14:18:52 437.305
KKS-1 25 Nov 14:17:29 14:20:24 17° 91° (E) 14:23:17 437.445
HORYU 2 25 Nov 14:34:40 14:38:55 48° 70° (ENE) 14:43:12 437.375
CUSAT 1 25 Nov 14:34:46 14:36:38 17° 290° (WNW) 14:38:30 437.405
ITUPSAT 1 25 Nov 14:34:50 14:39:41 81° 286° (WNW) 14:44:29 437.325
SO-50 25 Nov 14:41:42 14:43:50 13° 252° (WSW) 14:45:59 436.795
SWISSCUBE 25 Nov 14:46:08 14:50:52 59° 289° (WNW) 14:55:34 437.505
JAS-2 25 Nov 14:50:32 14:55:04 17° 48° (NE) 14:59:35 435.910
YUBILEINY 25 Nov 14:54:35 15:03:11 65° 268° (W) 15:11:41 435.215
DANDE 25 Nov 14:59:09 15:00:02 11° 292° (WNW) 15:00:54 436.750
ITAMSAT 1 25 Nov 15:00:23 15:04:55 30° 265° (W) 15:09:29 435.822/435.867
STARS 25 Nov 15:13:38 15:17:49 41° 99° (E) 15:21:58 437.465
PHONESAT 2.4 25 Nov 15:14:31 15:15:04 10° 152° (SSE) 15:15:37 2401.200-2431.200
BEESAT 25 Nov 15:17:40 15:21:59 34° 294° (WNW) 15:26:16 436.000
AO-7 25 Nov 15:22:29 15:30:40 67° 65° (ENE) 15:38:54 29.400- 29.500
VERMONT LUNAR 25 Nov 15:26:15 15:28:19 15° 157° (SSE) 15:30:23 437.305
Gurwin Techsat 1B 25 Nov 15:29:12 15:33:48 29° 266° (W) 15:38:26 435.225
AUBIESAT-1 25 Nov 15:44:07 15:47:51 22° 304° (NW) 15:51:34 437.475
M-CUBED/EXP-1 PRIME 25 Nov 15:49:10 15:52:37 19° 306° (NW) 15:56:04 437.505
